Date String (YYYY-MM-DD hh:mm:ss) UTC,Instrument flags,Ambient pressure (hPa),Sample flow (lpm),Bypass flow (lpm),Sample temperature (°C),Ambient temperature (°C),ASC tube jacket temperature (°C),LED temperature (°C),Box temperature (°C),Sample RH (%),Span deviation,Mass concentration (μg/m³),Mass concentration (μg/m³),Mass concentration (μg/m³)
DateTimeUTC,F1_M11,P_M11,Q1_M11,Q2_M11,T1_M11,T2_M11,T3_M11,T4_M11,T5_M11,U1_M11,ZSPAN_M11,X0_M11,X2_M11,X1_M11
2022-07-16 01:00:00,,0829.4,4.99,0.00,29.4,28.0,00.0,38.1,31.3,30.5,0000.0,0008.14,0003.91,0003.53
2022-07-16 01:01:00,,0829.5,5.02,0.00,29.4,28.2,00.0,38.1,31.4,30.6,0000.0,0008.24,0003.96,0003.55
2022-07-16 01:02:00,,0829.5,4.99,0.00,29.4,28.3,00.0,38.1,31.4,30.9,0000.0,0008.33,0003.97,0003.56
2022-07-16 01:03:00,,0829.5,5.00,0.00,29.5,28.1,00.0,38.1,31.4,31.2,0000.0,0008.33,0003.97,0003.56
2022-07-16 01:04:00,,0829.5,5.00,0.00,29.5,27.4,00.0,38.0,31.3,33.3,0000.0,0008.67,0004.00,0003.55
2022-07-16 01:05:00,,0829.5,5.00,0.00,29.4,27.0,00.0,38.0,31.3,34.4,0000.0,0009.08,0004.03,0003.53
2022-07-16 01:06:00,,0829.5,5.01,0.00,29.4,27.1,00.0,38.0,31.1,34.7,0000.0,0009.49,0004.06,0003.52
2022-07-16 01:07:00,,0829.5,5.00,0.00,29.3,27.2,00.0,38.0,31.1,34.7,0000.0,0010.02,0004.10,0003.51
2022-07-16 01:08:00,,0829.5,5.00,0.00,29.3,27.4,00.0,38.0,31.1,34.7,0000.0,0010.19,0004.14,0003.50
2022-07-16 01:09:00,,0829.5,5.00,0.00,29.3,27.5,00.0,38.0,31.1,34.6,0000.0,0010.87,0004.16,0003.49
2022-07-16 01:10:00,,0829.5,4.99,0.00,29.3,27.7,00.0,38.0,31.2,34.1,0000.0,0010.75,0004.17,0003.48
2022-07-16 01:11:00,,0829.5,5.01,0.00,29.3,27.9,00.0,38.0,31.3,33.7,0000.0,0010.88,0004.20,0003.47
2022-07-16 01:12:00,,0829.5,4.99,0.00,29.3,28.1,00.0,38.0,31.3,33.8,0000.0,0011.42,0004.22,0003.46
2022-07-16 01:13:00,,0829.6,5.00,0.00,29.4,28.2,00.0,38.1,31.4,34.0,0000.0,0012.08,0004.25,0003.44
2022-07-16 01:14:00,,0829.5,4.99,0.00,29.4,28.4,00.0,38.1,31.4,33.9,0000.0,0012.04,0004.27,0003.44
2022-07-16 01:15:00,,0829.6,5.01,0.00,29.5,28.3,00.0,38.1,31.5,33.2,0000.0,0011.87,0004.29,0003.44
2022-07-16 01:16:00,,0829.5,5.00,0.00,29.5,27.6,00.0,38.0,31.4,32.8,0000.0,0011.60,0004.30,0003.46
2022-07-16 01:17:00,,0829.5,4.99,0.00,29.4,27.0,00.0,38.0,31.3,32.5,0000.0,0011.52,0004.28,0003.47
2022-07-16 01:18:00,,0829.5,5.01,0.00,29.4,26.9,00.0,38.0,31.2,32.5,0000.0,0010.84,0004.31,0003.50
2022-07-16 01:19:00,,0829.5,5.00,0.00,29.3,27.0,00.0,38.0,31.1,32.8,0000.0,0010.87,0004.32,0003.53
2022-07-16 01:20:00,,0829.6,4.99,0.00,29.3,27.2,00.0,38.0,31.1,32.8,0000.0,0010.13,0004.30,0003.55
2022-07-16 01:21:00,,0829.6,5.00,0.00,29.3,27.4,00.0,38.0,31.1,32.7,0000.0,0010.10,0004.29,0003.58
2022-07-16 01:22:00,,0829.6,4.99,0.00,29.3,27.6,00.0,38.0,31.2,33.1,0000.0,0009.93,0004.30,0003.59
2022-07-16 01:23:00,,0829.6,5.01,0.00,29.3,27.8,00.0,38.0,31.2,32.4,0000.0,0009.38,0004.30,0003.60
2022-07-16 01:24:00,,0829.7,4.99,0.00,29.3,28.0,00.0,38.1,31.3,32.3,0000.0,0008.74,0004.30,0003.61
2022-07-16 01:25:00,,0829.6,5.02,0.00,29.4,28.2,00.0,38.1,31.4,32.7,0000.0,0008.73,0004.33,0003.63
2022-07-16 01:26:00,,0829.8,4.99,0.00,29.4,28.3,00.0,38.1,31.4,33.0,0000.0,0009.10,0004.37,0003.65
2022-07-16 01:27:00,,0829.8,4.99,0.00,29.5,28.3,00.0,38.1,31.5,33.1,0000.0,0009.22,0004.41,0003.67
2022-07-16 01:28:00,,0829.8,5.00,0.00,29.5,27.8,00.0,38.0,31.4,33.2,0000.0,0009.85,0004.42,0003.67
2022-07-16 01:29:00,,0829.8,5.02,0.00,29.4,27.1,00.0,38.0,31.3,34.0,0000.0,0009.93,0004.41,0003.66
2022-07-16 01:30:00,,0829.8,4.99,0.00,29.4,27.0,00.0,38.0,31.2,34.2,0000.0,0010.20,0004.44,0003.66
2022-07-16 01:31:00,,0829.9,5.00,0.00,29.3,27.0,00.0,38.0,31.1,34.3,0000.0,0010.75,0004.43,0003.65
2022-07-16 01:32:00,,0829.8,5.00,0.00,29.3,27.2,00.0,38.0,31.1,34.5,0000.0,0011.03,0004.45,0003.65
2022-07-16 01:33:00,,0829.8,5.00,0.00,29.3,27.4,00.0,38.0,31.1,34.6,0000.0,0011.00,0004.43,0003.65
2022-07-16 01:34:00,,0829.9,5.00,0.00,29.3,27.6,00.0,38.0,31.1,34.6,0000.0,0011.11,0004.41,0003.65
2022-07-16 01:35:00,,0829.9,5.01,0.00,29.3,27.8,00.0,38.0,31.2,34.5,0000.0,0011.48,0004.41,0003.64
2022-07-16 01:36:00,,0829.9,4.99,0.00,29.3,27.9,00.0,38.0,31.3,34.4,0000.0,0013.24,0004.39,0003.64
2022-07-16 01:37:00,,0829.9,5.01,0.00,29.4,28.1,00.0,38.1,31.3,34.2,0000.0,0014.29,0004.36,0003.63
2022-07-16 01:38:00,,0829.8,5.00,0.00,29.4,28.3,00.0,38.1,31.4,33.7,0000.0,0014.86,0004.38,0003.64
2022-07-16 01:39:00,,0829.9,5.00,0.00,29.4,28.4,00.0,38.1,31.5,33.2,0000.0,0015.98,0004.38,0003.63
2022-07-16 01:40:00,,0829.9,4.99,0.00,29.5,27.9,00.0,38.1,31.4,33.0,0000.0,0016.35,0004.40,0003.64
2022-07-16 01:41:00,,0829.8,4.99,0.00,29.4,27.2,00.0,38.0,31.3,32.9,0000.0,0016.08,0004.39,0003.64
2022-07-16 01:42:00,,0829.9,5.01,0.00,29.4,26.9,00.0,38.0,31.2,32.7,0000.0,0016.00,0004.40,0003.64
2022-07-16 01:43:00,,0829.9,4.99,0.00,29.3,27.0,00.0,38.0,31.1,32.5,0000.0,0016.05,0004.39,0003.64
2022-07-16 01:44:00,,0829.9,5.00,0.00,29.3,27.1,00.0,38.0,31.0,32.0,0000.0,0016.10,0004.40,0003.63
2022-07-16 01:45:00,,0829.9,5.00,0.00,29.2,27.3,00.0,38.0,31.1,31.8,0000.0,0016.04,0004.44,0003.63
2022-07-16 01:46:00,,0830.0,5.01,0.00,29.2,27.5,00.0,38.0,31.1,31.8,0000.0,0016.27,0004.40,0003.61
2022-07-16 01:47:00,,0830.0,5.00,0.00,29.3,27.7,00.0,38.0,31.2,32.2,0000.0,0014.33,0004.35,0003.60
2022-07-16 01:48:00,,0830.0,5.01,0.00,29.3,27.9,00.0,38.0,31.2,32.2,0000.0,0012.93,0004.33,0003.59
2022-07-16 01:49:00,,0830.0,5.00,0.00,29.3,28.0,00.0,38.0,31.3,32.3,0000.0,0012.07,0004.26,0003.57
2022-07-16 01:50:00,,0829.9,4.99,0.00,29.4,28.2,00.0,38.0,31.3,32.4,0000.0,0010.18,0004.24,0003.57
2022-07-16 01:51:00,,0829.9,5.00,0.00,29.4,28.3,00.0,38.1,31.4,32.6,0000.0,0009.62,0004.27,0003.58
2022-07-16 01:52:00,,0829.9,5.00,0.00,29.4,28.3,00.0,38.1,31.4,32.7,0000.0,0009.75,0004.22,0003.56
2022-07-16 01:53:00,,0829.9,5.00,0.00,29.5,27.8,00.0,38.0,31.4,32.8,0000.0,0011.33,0004.22,0003.56
2022-07-16 01:54:00,,0829.9,5.01,0.00,29.4,27.2,00.0,38.0,31.3,33.0,0000.0,0011.74,0004.20,0003.57
2022-07-16 01:55:00,,0829.9,5.01,0.00,29.4,27.0,00.0,38.0,31.2,33.0,0000.0,0011.85,0004.19,0003.58
2022-07-16 01:56:00,,0829.9,4.99,0.00,29.3,27.0,00.0,38.0,31.1,33.2,0000.0,0012.27,0004.14,0003.59
2022-07-16 01:57:00,,0829.9,5.00,0.00,29.2,27.1,00.0,38.0,31.0,33.1,0000.0,0012.73,0004.15,0003.59
2022-07-16 01:58:00,,0830.0,5.00,0.00,29.2,27.3,00.0,38.0,31.1,33.0,0000.0,0015.00,0004.20,0003.60
2022-07-16 01:59:00,,0830.0,4.99,0.00,29.2,27.5,00.0,38.0,31.1,33.1,0000.0,0015.37,0004.24,0003.61
